STARLINK-3099, 49446

Orbit data source: Space-Track

STARLINK-3099, 49446 is a payload satellite owned by SpaceX/Seattle (US) in LEO that was launched on Sat, 13 Nov 2021 UTC via an FALCON 9 launch vehicle from the Air Force Eastern Test Range (AFETR). Payload-class satellites include a variety of spacecraft equipped with specific instruments for various scientific and technological missions. These include communications satellites like Starlink; space stations such as the ISS; scientific satellites like the Hubble; Earth observation satellites from companies like Planet Labs, Umbra, and HawkEye 360; GPS; miniature CubeSats for education and research; and military/defense satellites.

Loading next visibility...
Identifier
49446, 2021-104AQ
Orbit
LEO
Country
Flag of USUS
Related business
Manufacturer
SpaceX/Seattle
Mission
Operational Commercial Communications
Bus & Motor
STARLINK, Unknown motor
Mass
290 kg wet, ~270 kg dry
Launch date (UTC)
2021-11-13 (5 years ago)
Launch vehicle
FALCON 9
Launch site
Air Force Eastern Test Range (AFETR)
Object type
Payload
Rocket body
Debris
Shape & HBR
Box + 1 Pan, 10.1 m
Radar Cross Section
13.562 m², Large (>1 m²)

Expand to show TLE details & history
Last TLE update: 3 days ago

TLE from 3 days ago
0 STARLINK-3099
1 49446U 21104AQ  26170.81914416  .00001919  00000-0  13861-3 0  9997
2 49446  53.1617 110.5326 0001407  97.9862 262.1289 15.08844649254339
Epoch: 2026-06-19T19:39Z
TLE epoch observation values (Epoch: 2026-06-19T19:39:34.055Z)
Latitude
-0.00003°
Longitude
-92.40197°
Altitude
540.754 km
Speed
7.593 km/s
True Right ascension
07h 22m 07s
True Declination
0° 00' 00"
Sunlit
Object was in daylight at epoch
Visualization orbit readout
Latitude
Unknown
Longitude
Unknown
Altitude
Unknown
Speed
Unknown
Apparent Right ascension
Unknown
Apparent Declination
Unknown
Sunlit
N/A
Visualization observer readout
Local Sidereal Time
21:26:17
Azimuth
Unknown
Elevation
Unknown
Doppler factor
Unknown
Orbital elements
Apogee altitude
540.956 km
Perigee altitude
539.01 km
Semi-major axis
6,918.12 km
Eccentricity
0.00014
Inclination
53.1617°
RAAN
110.5326°
Arg. of periapsis
97.9862°
True anomaly
262.11293°
Mean anomaly
262.1289°
Eccentric anomaly
262.12091°
Mean motion
3.77191 °/min
Orbital period
95.44 mins
BSTAR
0.00013861
Loading maneuver chart data...
Computing Atmospheric mass density...
Loading historical data...
Loading historical data...
Loading historical data...
Loading historical data...
Loading historical data...
Loading historical data...
Loading historical data...

Documentation

Showing up to 5 results
|